User: anonymous   Login
Location: Unspecified
(0.0000°N, 0.0000°E)
Time: 06:20:10
(UTC+00:00)
Language:

NOAA 17 - Orbit

View from above orbital plane
View from above orbital plane
View from above satellite
View from above satellite

Ground track
Ground track

The orbit data is extracted from the following two-line orbital elements,

1 27453U 02032A   15213.51200996  .00000019  00000-0  25652-4 0  9996
2 27453 098.3432 197.2723 0012795 053.6479 306.5880 14.24893621681118
Epoch (UTC): 01 August 2015 12:17:17
Eccentricity: 0.0012795
inclination: 98.3432°
perigee height: 799 km
apogee height: 818 km
right ascension of ascending node: 197.2723°
argument of perigee: 53.6479°
revolutions per day: 14.24893621
mean anomaly at epoch: 306.5880°
orbit number at epoch: 68111

The dashed part of the orbit path shows where the satellite is in the earth's shadow,  

DLR